CW3007 Weather Reports


Display with metric or nautical units.
time (UTC)temp
F
wind
direction
speed
MPH
gust
MPH
rain 1hr
in
rain 24hr
in
rain mn
in
humidity
%
barometer
mb
20260506010626 81 146 3.0 7.0 0.00 0.00 0.00 74 1004.4
20260506004626 82 157 3.0 8.0 0.00 0.00 0.00 73 1004.4
20260506003626 82 167 5.0 8.0 0.00 0.00 0.00 72 1004.4
20260506002626 82 144 3.0 7.0 0.00 0.00 0.00 72 1004.3
20260506001626 82 167 8.0 9.0 0.00 0.00 0.00 72 1004.3
20260505235626 83 174 2.0 9.0 0.00 0.00 0.00 72 1004.4
20260505234626 83 161 2.0 9.0 0.00 0.00 0.00 72 1004.2
20260505232626 83 133 8.0 14.0 0.00 0.00 0.00 70 1004.0
20260505231626 83 180 3.0 9.0 0.00 0.00 0.00 71 1003.7
20260505230626 83 161 5.0 12.0 0.00 0.00 0.00 71 1003.8
20260505225626 84 153 5.0 15.0 0.00 0.00 0.00 70 1003.7
20260505224626 84 182 4.0 13.0 0.00 0.00 0.00 70 1003.7
20260505223626 84 160 5.0 13.0 0.00 0.00 0.00 70 1003.8
20260505222626 84 163 7.0 12.0 0.00 0.00 0.00 70 1003.6
20260505221626 84 127 5.0 15.0 0.00 0.00 0.00 70 1003.6
20260505220626 84 209 6.0 14.0 0.00 0.00 0.00 68 1003.7
20260505214627 84 159 8.0 13.0 0.00 0.00 0.00 68 1004.2
20260505213626 84 143 8.0 14.0 0.00 0.00 0.00 68 1004.2
20260505212627 84 169 13.0 15.0 0.00 0.00 0.00 68 1004.2
20260505211627 84 169 17.0 19.0 0.00 0.00 0.00 68 1004.5
20260505210626 84 122 5.0 16.0 0.00 0.00 0.00 68 1004.5
20260505202627 83 177 10.0 17.0 0.00 0.00 0.00 69 1004.9
20260505201627 83 191 8.0 15.0 0.00 0.00 0.00 70 1005.1
20260505200626 82 196 9.0 18.0 0.00 0.00 0.00 71 1005.3
20260505195626 83 121 3.0 16.0 0.00 0.00 0.00 72 1005.3
20260505192626 82 175 10.0 14.0 0.00 0.00 0.00 71 1005.6
20260505191626 82 205 5.0 17.0 0.00 0.00 0.00 70 1006.0
20260505185626 82 188 8.0 16.0 0.00 0.00 0.00 72 1006.0
20260505183625 80 189 8.0 11.0 0.00 0.00 0.00 73 1006.4
20260505182626 81 173 7.0 11.0 0.00 0.00 0.00 73 1006.6
20260505181626 80 169 9.0 15.0 0.00 0.00 0.00 75 1006.6
20260505180627 78 203 7.0 13.0 0.00 0.00 0.00 75 1006.7
20260505175626 78 243 9.0 15.0 0.00 0.00 0.00 76 1006.9
20260505174626 78 180 5.0 17.0 0.00 0.00 0.00 76 1006.9
20260505173626 78 205 7.0 15.0 0.00 0.00 0.00 77 1007.0
20260505172626 77 210 7.0 12.0 0.00 0.00 0.00 78 1007.1
20260505171626 77 190 11.0 15.0 0.00 0.00 0.00 78 1006.9
20260505170625 76 228 8.0 15.0 0.00 0.00 0.00 79 1007.1
20260505164626 75 221 6.0 14.0 0.00 0.00 0.00 80 1007.2
20260505163626 75 211 6.0 12.0 0.00 0.00 0.00 81 1007.2
20260505162627 74 188 8.0 14.0 0.00 0.00 0.00 81 1007.2
20260505161627 74 247 9.0 11.0 0.00 0.00 0.00 81 1007.2
20260505160627 74 217 3.0 14.0 0.00 0.00 0.00 82 1007.2
20260505152626 74 186 6.0 12.0 0.00 0.00 0.00 82 1007.2
20260505151627 74 206 2.0 12.0 0.00 0.00 0.00 82 1007.1
20260505150626 74 242 8.0 19.0 0.00 0.00 0.00 82 1007.1
20260505124627 72 211 6.0 14.0 0.00 0.00 0.00 84 1006.0
20260505123627 72 192 8.0 13.0 0.00 0.00 0.00 84 1005.8
20260505122627 72 212 6.0 13.0 0.00 0.00 0.00 83 1005.7
20260505121627 72 187 11.0 12.0 0.00 0.00 0.00 83 1005.6
20260505114627 72 178 8.0 14.0 0.00 0.00 0.00 83 1005.4
20260505113627 71 161 5.0 11.0 0.00 0.00 0.00 83 1005.3
20260505112626 71 182 7.0 16.0 0.00 0.00 0.00 83 1005.4
20260505111626 71 150 8.0 15.0 0.00 0.00 0.00 83 1005.2
20260505110626 71 190 6.0 13.0 0.00 0.00 0.00 83 1005.4
20260505101625 71 215 5.0 10.0 0.00 0.00 0.00 82 1005.7
20260505100626 71 198 7.0 11.0 0.00 0.00 0.00 81 1005.8
20260505095626 71 196 10.0 13.0 0.00 0.00 0.00 81 1005.8
20260505094627 72 157 10.0 14.0 0.00 0.00 0.00 81 1005.6
20260505093627 72 190 8.0 13.0 0.00 0.00 0.00 81 1005.8
20260505092627 72 188 6.0 15.0 0.00 0.00 0.00 81 1005.8
20260505091627 72 179 13.0 14.0 0.00 0.00 0.00 81 1005.9
20260505085626 72 175 8.0 14.0 0.00 0.00 0.00 82 1005.8
20260505084627 72 203 6.0 19.0 0.00 0.00 0.00 82 1006.1
20260505083626 72 187 5.0 18.0 0.00 0.00 0.00 82 1006.0
20260505082625 72 182 7.0 20.0 0.00 0.00 0.00 82 1006.4
20260505081626 72 175 10.0 19.0 0.00 0.00 0.00 81 1006.4
20260505080626 72 181 9.0 19.0 0.00 0.00 0.00 82 1006.5
20260505075627 72 178 9.0 18.0 0.00 0.00 0.00 82 1006.3
20260505074626 72 194 13.0 18.0 0.00 0.00 0.00 82 1006.6
20260505073626 72 175 8.0 17.0 0.00 0.00 0.00 82 1006.5
20260505072627 72 158 6.0 21.0 0.00 0.00 0.00 81 1006.6
20260505071627 72 172 10.0 16.0 0.00 0.00 0.00 81 1007.0
20260505070626 72 194 10.0 18.0 0.00 0.00 0.00 81 1007.0
20260505065627 72 175 7.0 17.0 0.00 0.00 0.00 81 1007.2
20260505064627 72 143 9.0 17.0 0.00 0.00 0.00 81 1007.3
20260505063626 72 171 14.0 19.0 0.00 0.00 0.00 81 1007.3
20260505062626 72 187 9.0 17.0 0.00 0.00 0.00 81 1007.4
20260505061626 72 176 9.0 16.0 0.00 0.00 0.00 81 1007.6
20260505060626 72 175 12.0 21.0 0.00 0.00 0.00 81 1007.6
20260505055627 72 211 14.0 20.0 0.00 0.00 0.00 81 1007.5
20260505054627 72 175 8.0 16.0 0.00 0.00 0.00 81 1007.6
20260505052626 72 186 10.0 14.0 0.00 0.00 0.00 81 1007.5
20260505051627 72 185 6.0 16.0 0.00 0.00 0.00 81 1007.5
20260505041625 73 207 4.0 17.0 0.00 0.00 0.00 79 1007.5
20260505040625 73 135 5.0 15.0 0.00 0.00 0.00 78 1007.5
20260505035626 73 160 5.0 10.0 0.00 0.00 0.00 78 1007.6
20260505033627 74 159 7.0 13.0 0.00 0.00 0.00 77 1007.6
20260505032626 74 140 7.0 14.0 0.00 0.00 0.00 76 1007.5
20260505031625 74 170 5.0 12.0 0.00 0.00 0.00 76 1007.4
20260505030625 75 173 5.0 10.0 0.00 0.00 0.00 75 1007.5
20260505025626 75 166 5.0 15.0 0.00 0.00 0.00 74 1007.6
20260505024626 75 169 10.0 13.0 0.00 0.00 0.00 73 1007.4
20260505023629 76 184 4.0 11.0 0.00 0.00 0.00 72 1007.4
20260505021625 76 193 4.0 13.0 0.00 0.00 0.00 71 1007.3
20260505014627 77 192 4.0 10.0 0.00 0.00 0.00 69 1007.1
20260505013626 77 175 2.0 8.0 0.00 0.00 0.00 68 1007.2
20260505012626 78 215 5.0 9.0 0.00 0.00 0.00 66 1007.2